Simultaneous Nadir Overpasses (SNOs) Predictions

Prediction of SNOs between AQUA and METOP-B Satellite Orbit:

Table of predicted SNOs for the next 14.0 days since TLE Epoch: 1/23/2021
Index Date (AQUA) Time (AQUA) Lat,Lon (AQUA) SZA (AQUA ) Date (METOP-B) Time (METOP-B) Lat,Lon (METOP-B) SZA (METOP-B ) Distance(km) Time Diff (sec)
1 01/24/2021 21:41:31 -73.78, 28.91 87.15 01/24/2021 21:40:54 -73.80, 28.96 87.13 2.83 37
2 01/24/2021 22:30:59 73.83,-163.56 92.89 01/24/2021 22:31:33 73.83,-163.64 92.89 2.51 34
3 01/27/2021 17:15:48 -73.80, 95.30 87.84 01/27/2021 17:15:16 -73.80, 95.37 87.84 2.16 32
4 01/27/2021 18:05:16 73.85, -97.18 92.21 01/27/2021 18:05:54 73.87, -97.13 92.22 2.29 38
5 01/30/2021 12:50:03 -73.77, 161.79 88.63 01/30/2021 12:49:37 -73.80, 161.77 88.60 2.55 26
6 01/30/2021 13:39:32 73.88, -30.81 91.49 01/30/2021 13:40:15 73.86, -30.74 91.46 3.28 43
7 02/02/2021 08:24:20 -73.80,-131.84 89.39 02/02/2021 08:23:59 -73.79,-131.83 89.39 1.27 21
8 02/02/2021 09:13:48 73.86, 35.66 90.67 02/02/2021 09:14:37 73.85, 35.65 90.65 1.52 49
9 02/05/2021 03:08:58 73.18, 128.28 89.12 02/05/2021 03:07:52 73.11, 125.72 89.19 82.83 66
10 02/05/2021 03:58:36 -73.79, -65.37 90.24 02/05/2021 03:58:21 -73.79, -65.42 90.23 1.67 15
11 02/05/2021 04:48:04 73.85, 102.13 89.82 02/05/2021 04:48:59 73.84, 102.04 89.81 2.76 55



Historial Predications of SNOs between AQUA and METOP-B
